Terminal Aerodrome Forecast
Issued by NWS Tampa Bay Area, FL

Home | Current Version | Previous Version | Text Only | Print | Product List | Glossary On
Versions: 1 2 3 4 5 6 7 8 9 10 11 12 13 14 15
000
FTUS42 KTBW 011130
TAFFMY
TAF
KFMY 011130Z 0112/0212 10007KT P6SM FEW250
     FM011500 13008KT P6SM FEW035 SCT250
     FM012000 19007KT P6SM SCT045 SCT250
     FM020300 10005KT P6SM FEW250=

USA.gov is the U.S. government's official web portal to all federal, state and local government web resources and services.